Wind_Speed
42 45 48 50 48 47 51 54 51 45 45 42 39 36 38 42 42 42 42 43 41 41 41 42 42 40 49 48 42 42 47 45 44 44 44 48 50 48 50 50 53 57 59
39 38 39 40 43 44 45 43 40 42 40 40 37 37 38 39 41 42 42 43 43 43 43 43 45 49 47 46 45 43 39 37 43 47 49 49 53 50 51 53 56 57 62
39 40 40 40 40 40 39 40 40 40 40 41 41 40 41 41 40 40 40 40 41 42 43 43 43 44 44 46 47 44 42 42 44 46 47 49 53 54 56 58 60 62 65
37 37 39 41 41 41 42 41 42 43 43 44 43 42 41 40 39 38 36 36 39 41 45 46 44 44 43 44 44 45 45 44 45 46 47 48 50 50 50 50 51 52 53
39 39 38 39 40 41 42 42 43 42 43 43 42 42 40 37 36 37 36 37 40 39 38 39 38 39 40 41 43 44 44 42 41 38 35 35 35 35 36 38 40 40 42
38 36 36 37 38 40 40 41 40 39 39 36 36 37 41 40 40 37 35 35 35 35 36 35 36 39 39 38 35 33 31 30 30 30 29 29 31 32 30 31 33 34 36
37 37 36 35 34 35 36 34 33 30 34 37 37 34 30 30 32 33 34 30 27 30 33 33 33 30 27 25 25 25 26 27 27 28 28 25 23 25 29 30 30 31 33
35 35 36 35 33 32 28 34 35 31 28 29 28 27 30 30 28 22 19 23 24 26 26 21 21 23 22 22 22 22 23 24 25 22 20 24 24 25 27 29 30 31 33
36 37 36 36 35 30 24 28 25 27 28 28 30 29 26 19 17 17 18 17 18 16 18 20 21 20 18 18 22 22 24 21 18 18 22 23 24 26 28 29 31 32 37
38 38 38 35 31 26 28 31 31 29 26 20 14 13 15 16 12 13 13 14 15 15 16 16 15 15 18 20 21 23 20 18 18 20 22 24 26 28 30 31 33 34 36
38 36 35 29 25 25 27 26 24 25 20 19 19 18 10 9 10 12 14 14 14 14 14 15 16 18 19 21 22 25 20 20 22 24 26 27 29 31 31 31 32 32 33
36 32 30 27 22 27 27 28 27 19 18 19 13 6 6 8 9 11 13 13 13 15 15 16 17 19 19 21 22 24 22 22 25 25 27 28 28 27 28 28 30 30 32
30 29 29 28 27 28 26 21 18 18 14 7 4 4 5 8 10 12 13 12 13 15 15 15 16 16 17 19 21 22 22 23 23 24 26 26 24 24 24 27 29 28 28
26 26 24 22 18 17 18 17 13 6 3 3 4 5 7 10 12 10 10 12 12 12 12 13 13 15 17 18 18 19 21 21 23 23 24 22 22 21 23 25 27 25 25
26 18 19 20 19 15 11 8 3 2 3 5 6 8 10 13 10 9 11 11 11 11 12 12 13 14 15 17 18 20 21 22 24 24 25 25 22 19 20 22 27 25 23
22 21 20 19 14 10 7 4 4 5 5 5 8 10 13 8 6 8 8 9 10 11 12 13 14 16 17 19 21 22 24 25 25 25 25 26 24 20 18 20 25 25 23
19 18 17 11 9 6 5 6 6 5 6 10 12 8 4 6 7 8 8 10 11 13 14 15 17 18 20 21 23 25 26 26 26 26 26 26 26 23 18 19 21 25 24
16 15 11 12 11 8 7 6 6 8 7 4 5 6 7 7 8 8 9 11 12 13 14 16 17 18 19 21 23 26 27 26 26 26 26 25 26 25 20 18 20 23 24
11 9 7 8 8 8 9 10 10 10 9 8 7 6 7 8 9 10 11 11 13 15 16 16 17 18 19 21 23 25 27 28 27 26 26 26 25 25 24 20 19 20 24
8 8 6 5 6 8 10 11 10 9 9 8 7 7 7 8 9 10 12 13 14 15 16 17 17 17 19 20 22 24 26 27 27 26 24 24 25 24 25 23 20 19 21
7 6 5 5 7 8 8 8 8 8 8 7 6 5 6 8 9 11 12 12 12 13 17 19 19 18 20 21 21 23 24 25 26 26 25 24 25 25 24 24 24 21 19
5 3 2 4 5 6 8 8 8 7 7 6 4 4 5 7 10 12 13 12 12 12 14 18 20 19 20 20 21 22 24 24 26 26 25 24 23 23 24 23 24 23 21
7 6 4 5 7 8 9 9 9 8 7 5 4 4 6 9 12 14 15 14 13 12 12 13 18 20 21 21 22 23 24 24 24 25 25 24 23 22 22 23 23 23 24
9 8 7 8 9 10 12 11 10 8 7 6 7 7 9 12 15 15 15 15 14 13 12 12 15 18 21 23 23 23 23 23 24 24 24 23 23 22 21 21 21 22 23
11 10 11 11 11 11 12 13 12 10 9 9 11 11 12 15 17 17 15 13 14 14 12 11 12 16 20 22 23 23 23 23 23 23 23 23 21 21 20 20 21 21 21
15 14 13 13 12 12 13 14 14 14 12 11 12 14 14 15 15 14 13 14 15 13 11 11 11 13 17 20 22 23 23 23 23 23 23 23 21 20 19 20 21 21 22
Wind_Direction
277 278 281 283 285 286 283 283 286 285 293 291 287 283 283 285 286 287 288 289 289 289 289 289 287 289 288 294 281 279 283 280 275 285 284 276 275 278 279 281 280 277 261
289 292 292 287 286 286 288 287 283 287 290 291 289 287 284 283 283 285 287 287 287 288 287 287 286 288 290 285 295 292 288 281 272 276 278 278 280 283 279 276 275 272 275
287 292 291 289 287 288 287 285 286 287 286 285 285 285 285 286 285 284 285 284 285 286 286 287 287 287 288 284 289 290 289 287 284 282 280 279 279 279 278 277 277 276 276
299 299 298 296 295 295 291 288 285 284 284 284 284 285 286 286 286 287 287 280 283 282 285 287 289 290 290 290 289 289 288 286 284 283 283 283 283 285 286 286 286 286 285
298 298 297 296 294 293 291 290 288 286 285 284 284 286 287 287 287 289 287 279 283 284 285 288 290 290 289 288 288 290 292 293 294 293 292 292 293 292 293 295 294 293 291
303 302 300 297 295 293 292 290 290 289 290 290 288 290 284 284 285 288 284 282 281 283 285 286 289 292 296 297 299 300 300 300 301 303 304 303 302 303 307 308 307 307 304
305 305 304 303 302 302 302 299 297 288 290 288 291 289 288 292 288 284 280 279 287 293 295 298 298 299 301 304 306 310 309 306 304 302 302 305 312 315 318 318 316 315 313
305 305 303 303 301 301 298 282 295 296 297 292 289 291 295 294 291 292 296 295 292 291 295 299 306 306 308 307 305 301 303 304 304 306 309 312 311 315 321 323 322 321 319
308 305 301 299 299 301 289 296 294 299 303 303 303 297 290 288 295 299 291 296 302 303 302 307 310 311 310 318 322 318 317 312 308 309 312 310 312 318 320 322 325 326 326
312 310 304 299 292 284 275 293 303 308 312 300 310 310 301 295 295 297 301 308 312 317 325 326 329 328 320 321 324 325 320 314 306 308 307 310 312 315 322 324 329 332 332
313 307 299 289 289 284 296 298 308 304 296 304 301 301 291 298 307 308 306 308 314 326 326 330 330 327 326 327 331 334 324 318 311 307 309 310 311 315 320 325 331 334 335
314 311 305 295 294 294 303 299 294 293 294 295 294 281 295 317 322 321 323 320 323 331 333 335 337 337 334 336 336 342 334 320 315 311 306 309 313 318 321 328 330 333 336
321 318 310 301 292 290 293 294 300 294 297 276 252 279 322 330 324 337 343 334 329 329 331 332 334 336 338 343 344 339 337 337 333 322 314 312 315 321 327 332 331 334 338
320 318 311 311 310 303 301 301 307 306 251 253 271 289 311 332 339 343 351 353 352 351 349 346 343 342 344 345 340 337 343 342 344 343 338 328 318 320 329 334 335 339 344
325 328 319 318 314 311 311 314 315 253 279 288 276 294 322 330 331 338 348 354 0 5 6 2 359 358 357 354 353 351 351 349 350 351 349 345 335 327 332 336 341 340 336
327 330 330 327 326 319 307 291 277 282 288 304 312 316 319 330 352 8 13 12 13 14 15 10 8 7 4 1 358 356 355 356 355 353 353 351 348 337 331 335 342 346 344
327 332 335 348 354 354 321 303 303 307 311 314 316 324 356 31 43 37 23 17 13 14 12 9 7 4 3 0 359 356 355 356 356 355 355 354 352 349 336 336 339 347 346
325 331 347 350 336 323 316 309 308 307 318 18 57 65 60 45 29 21 18 14 12 9 10 8 6 3 0 359 358 355 354 355 355 355 357 358 357 356 350 343 342 347 349
336 343 359 7 21 37 52 63 66 67 65 57 52 43 33 24 17 18 19 19 20 19 16 11 7 4 1 360 357 354 354 356 357 356 358 0 360 1 1 354 349 350 354
343 349 354 14 32 45 50 47 45 38 32 27 23 21 24 31 31 29 27 24 19 19 20 15 10 7 5 2 359 356 356 358 359 358 358 0 3 5 5 3 357 352 355
336 1 19 45 35 27 27 23 14 8 7 6 15 30 40 31 26 23 18 13 6 10 16 14 11 10 7 5 1 359 359 360 1 1 1 2 4 7 8 9 8 2 355
318 325 357 11 8 8 5 2 1 359 354 351 1 14 16 14 12 11 6 359 354 358 6 11 11 9 7 4 2 1 2 2 4 5 4 3 3 6 10 11 11 10 8
292 283 281 311 331 335 338 344 348 344 336 327 325 337 352 356 356 352 349 348 344 347 354 4 12 12 11 7 4 3 3 3 3 5 6 5 4 4 8 12 14 11 12
280 263 271 295 313 322 324 326 331 331 322 311 309 319 329 334 335 333 331 332 335 336 341 351 2 8 9 8 6 3 2 3 3 3 5 6 5 5 6 6 9 12 14
265 256 265 286 301 314 327 327 320 316 312 310 308 309 316 322 325 323 320 321 327 330 333 341 355 6 7 6 4 3 1 1 1 1 3 4 2 4 6 9 10 7 6
254 256 261 276 287 302 316 328 326 317 312 307 306 307 313 320 325 326 322 323 324 327 330 335 348 358 2 3 2 359 359 357 357 358 358 360 358 358 0 3 5 6 6
Height
5850 5847 5843 5840 5836 5831 5827 5822 5818 5815 5811 5807 5804 5801 5798 5795 5791 5788 5784 5779 5775 5772 5768 5764 5761 5758 5752 5751 5748 5745 5743 5741 5740 5737 5734 5730 5728 5726 5724 5721 5720 5719 5717
5840 5836 5832 5828 5824 5819 5815 5811 5808 5805 5801 5798 5794 5792 5789 5786 5782 5778 5774 5769 5765 5761 5757 5754 5749 5746 5743 5739 5736 5733 5731 5729 5727 5725 5721 5718 5715 5713 5711 5708 5707 5705 5701
5831 5826 5822 5818 5814 5810 5805 5802 5798 5795 5792 5788 5784 5781 5779 5775 5772 5768 5764 5759 5755 5752 5748 5744 5740 5736 5733 5729 5726 5723 5720 5717 5714 5711 5708 5706 5702 5700 5695 5692 5690 5687 5683
5819 5815 5811 5807 5803 5799 5794 5790 5786 5783 5780 5777 5773 5770 5767 5764 5761 5757 5753 5749 5746 5743 5737 5734 5730 5726 5722 5719 5715 5711 5707 5705 5701 5698 5694 5690 5688 5684 5680 5677 5673 5668 5666
5809 5805 5801 5796 5792 5787 5783 5779 5775 5772 5769 5766 5762 5759 5756 5753 5749 5746 5742 5739 5736 5732 5728 5724 5719 5716 5712 5709 5705 5701 5697 5693 5689 5686 5682 5679 5676 5673 5669 5665 5660 5657 5653
5799 5795 5791 5785 5781 5777 5773 5769 5766 5762 5759 5756 5752 5749 5745 5742 5739 5735 5732 5729 5726 5723 5719 5716 5712 5708 5704 5700 5696 5691 5687 5684 5680 5676 5673 5670 5667 5663 5658 5654 5650 5645 5641
5790 5786 5781 5776 5772 5768 5763 5759 5756 5753 5750 5747 5743 5739 5736 5732 5729 5726 5723 5720 5717 5715 5712 5708 5705 5701 5698 5694 5689 5684 5680 5677 5674 5671 5667 5663 5659 5655 5651 5646 5642 5637 5631
5782 5777 5772 5768 5764 5760 5756 5753 5749 5745 5742 5738 5735 5731 5727 5724 5721 5718 5716 5714 5711 5709 5706 5703 5699 5696 5692 5688 5684 5681 5677 5673 5669 5664 5661 5658 5655 5651 5646 5641 5636 5630 5624
5774 5769 5765 5760 5756 5752 5748 5745 5741 5738 5734 5730 5726 5723 5719 5716 5715 5714 5712 5709 5706 5704 5702 5698 5695 5691 5687 5684 5680 5675 5671 5667 5663 5660 5657 5654 5651 5646 5642 5636 5630 5623 5615
5765 5760 5755 5752 5747 5744 5741 5738 5734 5730 5727 5722 5719 5717 5716 5713 5711 5710 5709 5706 5703 5700 5697 5694 5691 5687 5684 5680 5676 5672 5667 5663 5660 5658 5654 5650 5646 5641 5636 5630 5623 5616 5607
5758 5752 5748 5744 5740 5737 5734 5730 5727 5725 5722 5720 5717 5715 5713 5711 5709 5708 5705 5702 5700 5697 5695 5692 5688 5685 5680 5676 5672 5667 5663 5659 5656 5653 5649 5645 5640 5635 5630 5623 5616 5609 5601
5751 5744 5739 5736 5734 5729 5727 5725 5722 5720 5718 5716 5713 5713 5712 5710 5708 5706 5702 5699 5697 5694 5692 5689 5686 5682 5678 5674 5669 5665 5660 5657 5653 5649 5644 5640 5635 5630 5624 5618 5611 5604 5597
5743 5737 5733 5728 5726 5723 5721 5719 5716 5714 5712 5712 5711 5711 5710 5708 5706 5703 5699 5696 5693 5691 5689 5687 5684 5680 5677 5672 5668 5663 5659 5654 5649 5644 5639 5634 5630 5625 5619 5613 5606 5600 5594
5738 5732 5727 5723 5721 5718 5715 5713 5711 5710 5710 5710 5710 5709 5708 5706 5703 5701 5698 5695 5692 5690 5688 5685 5682 5679 5675 5671 5668 5663 5658 5652 5647 5641 5635 5629 5625 5621 5616 5611 5604 5597 5591
5732 5729 5724 5720 5717 5714 5712 5711 5710 5710 5709 5709 5708 5707 5705 5703 5701 5699 5696 5694 5692 5690 5687 5685 5682 5678 5674 5670 5666 5661 5656 5650 5644 5638 5632 5626 5620 5616 5612 5607 5601 5595 5590
5729 5725 5722 5718 5714 5712 5711 5711 5710 5709 5708 5707 5706 5704 5703 5701 5700 5698 5696 5694 5692 5690 5687 5684 5681 5677 5673 5669 5664 5659 5654 5648 5642 5636 5630 5624 5618 5613 5609 5604 5599 5593 5588
5728 5724 5720 5717 5714 5713 5712 5710 5709 5708 5707 5706 5704 5702 5701 5700 5699 5698 5697 5695 5693 5690 5687 5684 5680 5676 5672 5668 5663 5658 5652 5647 5641 5635 5629 5623 5617 5611 5606 5602 5597 5592 5587
5726 5723 5719 5717 5715 5713 5712 5710 5709 5707 5706 5704 5703 5703 5702 5701 5700 5699 5697 5695 5692 5689 5686 5682 5679 5675 5671 5667 5662 5657 5651 5646 5640 5634 5629 5623 5617 5611 5605 5600 5596 5591 5586
5725 5722 5720 5718 5716 5714 5712 5710 5709 5708 5707 5706 5705 5704 5703 5701 5700 5698 5696 5694 5691 5688 5685 5682 5678 5674 5670 5666 5661 5656 5650 5644 5639 5634 5628 5622 5617 5611 5604 5599 5595 5590 5585
5725 5723 5721 5719 5718 5716 5714 5712 5711 5710 5709 5707 5706 5705 5703 5702 5700 5698 5696 5693 5691 5688 5685 5682 5678 5674 5670 5665 5660 5655 5650 5644 5639 5633 5628 5623 5617 5611 5605 5599 5594 5590 5586
5725 5723 5721 5720 5718 5718 5716 5714 5712 5711 5709 5708 5706 5705 5704 5702 5700 5698 5695 5693 5691 5688 5685 5681 5678 5673 5669 5665 5660 5655 5649 5644 5639 5633 5627 5622 5617 5611 5606 5600 5595 5591 5586
5724 5723 5722 5721 5720 5718 5716 5714 5712 5711 5709 5708 5706 5705 5704 5702 5700 5698 5695 5693 5690 5687 5684 5681 5677 5673 5669 5664 5659 5654 5649 5643 5638 5633 5627 5622 5618 5613 5608 5602 5597 5593 5588
5723 5722 5721 5720 5719 5718 5716 5714 5712 5710 5709 5707 5706 5705 5703 5701 5699 5697 5695 5692 5689 5686 5683 5680 5676 5673 5668 5664 5659 5653 5648 5643 5638 5633 5628 5623 5618 5614 5609 5604 5599 5594 5589
5720 5720 5719 5718 5718 5716 5715 5713 5710 5708 5707 5706 5705 5703 5702 5700 5698 5695 5693 5690 5687 5685 5682 5678 5675 5671 5667 5663 5658 5653 5649 5644 5639 5633 5629 5624 5620 5615 5611 5606 5601 5597 5592
5717 5717 5717 5716 5715 5714 5712 5710 5708 5707 5705 5704 5703 5701 5699 5698 5695 5692 5690 5687 5685 5682 5679 5676 5673 5669 5666 5662 5657 5652 5648 5644 5639 5634 5629 5625 5620 5616 5612 5607 5603 5598 5594
5714 5713 5713 5713 5712 5711 5710 5708 5706 5704 5703 5701 5700 5699 5697 5695 5692 5690 5687 5685 5682 5680 5677 5674 5671 5668 5664 5660 5656 5651 5647 5643 5639 5634 5629 5625 5621 5616 5612 5608 5604 5600 5595